Starlink 4634

operational
NORAD ID: 53967 Int'l Des: 2022-125 Owner: SPXS Country: US Constellation: starlink
LEOCIRCULAR

About Starlink 4634

Description loading...

Live Position

Loading 3D Globe...

Upcoming Passes

Altitude History

Altitude vs Time

uPlot chart will show altitude changes over time

Two-Line Element Set

1 53967U 22125D 25257.37212606 .00000046 00000-0 20968-4 0 9999
2 53967 53.2178 295.6806 0001268 83.0285 277.0851 15.08839705162709
Epoch: Sep 14, 2025 • Age: 27 hours

Current Status

Altitude 539.7 km
Velocity 7.59 km/s
Sub-Earth Point 8.43°N, 122.19°E
Launch Date Oct 5, 2022
Age 2.9 years
Type internet

Technical Details

Classification Payload
Mass 305.00 kg
Dry Mass 290.00 kg
Total Mass 305.00 kg
Length 0.20 m
Diameter 2.80 m
Span 9.00 m
Shape Box + pan
Manufacturer SPXS
Bus Type Starlink
Phase Status In Orbit
Owner/State SPXS/US

Large Constellations

Loading constellations...